Radiation Dose at Monitoring Post of Fukushima Daini Nuclear Power Station
Date,Time,MP-1(microSv/h),MP-2(microSv/h),MP-3(microSv/h),MP-4(microSv/h),MP-5(microSv/h),MP-6(microSv/h),MP-7(microSv/h),Wind Direction,Wind Velocity(m/s),Rain
2015/03/19,00:00,0.547,0.337,0.570,0.530,0.557,0.258,0.229,north-northwest,0.9,No
2015/03/19,00:10,0.547,0.335,0.575,0.528,0.560,0.256,0.228,north,1.4,No
2015/03/19,00:20,0.548,0.337,0.573,0.532,0.557,0.257,0.228,north,1.7,No
2015/03/19,00:30,0.544,0.338,0.571,0.530,0.563,0.257,0.227,north,2.5,No
2015/03/19,00:40,0.547,0.335,0.574,0.529,0.559,0.256,0.229,north,3.3,No
2015/03/19,00:50,0.547,0.337,0.571,0.531,0.557,0.256,0.229,north,2.5,No
2015/03/19,01:00,0.545,0.337,0.574,0.528,0.561,0.258,0.228,north,1.8,Yes
2015/03/19,01:10,0.548,0.335,0.574,0.529,0.557,0.256,0.228,north,1.8,Yes
2015/03/19,01:20,0.547,0.337,0.570,0.529,0.558,0.257,0.228,north,1.4,No
2015/03/19,01:30,0.545,0.335,0.574,0.529,0.560,0.256,0.228,north,2.9,Yes
2015/03/19,01:40,0.547,0.337,0.571,0.532,0.558,0.257,0.228,north,2.0,Yes
2015/03/19,01:50,0.548,0.339,0.575,0.530,0.560,0.258,0.229,north,2.5,Yes
2015/03/19,02:00,0.547,0.337,0.574,0.531,0.559,0.257,0.228,north,2.7,Yes
2015/03/19,02:10,0.547,0.338,0.573,0.531,0.558,0.258,0.230,north,3.1,Yes
2015/03/19,02:20,0.548,0.339,0.575,0.531,0.562,0.259,0.231,north,2.7,Yes
2015/03/19,02:30,0.551,0.339,0.575,0.532,0.560,0.259,0.232,north,3.4,Yes
2015/03/19,02:40,0.549,0.341,0.573,0.530,0.558,0.260,0.232,north-northwest,3.3,Yes
2015/03/19,02:50,0.545,0.341,0.576,0.528,0.561,0.263,0.235,north,3.2,Yes
2015/03/19,03:00,0.549,0.340,0.570,0.527,0.558,0.262,0.232,north,3.9,Yes
2015/03/19,03:10,0.544,0.340,0.568,0.523,0.559,0.262,0.232,north-northwest,2.6,Yes
2015/03/19,03:20,0.545,0.339,0.570,0.524,0.556,0.262,0.232,north,4.3,Yes
2015/03/19,03:30,0.545,0.340,0.564,0.523,0.554,0.263,0.232,north,2.2,Yes
2015/03/19,03:40,0.540,0.340,0.564,0.523,0.554,0.262,0.232,north,5.6,Yes
2015/03/19,03:50,0.541,0.340,0.564,0.521,0.558,0.261,0.233,west-northwest,7.0,Yes
2015/03/19,04:00,0.540,0.338,0.558,0.518,0.553,0.262,0.229,north,5.4,Yes
2015/03/19,04:10,0.537,0.337,0.558,0.515,0.553,0.261,0.230,north,4.4,Yes
2015/03/19,04:20,0.540,0.338,0.559,0.515,0.553,0.260,0.230,north,5.0,Yes
2015/03/19,04:30,0.540,0.336,0.555,0.516,0.553,0.258,0.230,north-northwest,4.2,Yes
2015/03/19,04:40,0.536,0.337,0.555,0.514,0.552,0.259,0.228,north,4.4,Yes
2015/03/19,04:50,0.538,0.335,0.555,0.511,0.553,0.259,0.228,west,4.8,Yes
2015/03/19,05:00,0.533,0.333,0.551,0.511,0.550,0.259,0.228,northwest,3.6,Yes
2015/03/19,05:10,0.534,0.335,0.550,0.510,0.554,0.259,0.228,north-northwest,4.5,Yes
2015/03/19,05:20,0.537,0.334,0.552,0.509,0.553,0.257,0.227,north,4.7,Yes
2015/03/19,05:30,0.532,0.332,0.550,0.509,0.552,0.257,0.228,north,4.7,Yes
2015/03/19,05:40,0.531,0.333,0.550,0.507,0.547,0.256,0.226,north-northwest,4.5,Yes
2015/03/19,05:50,0.535,0.333,0.552,0.508,0.551,0.255,0.226,north-northwest,6.3,Yes
2015/03/19,06:00,0.531,0.333,0.549,0.507,0.548,0.254,0.224,north-northwest,5.6,Yes
2015/03/19,06:10,0.531,0.332,0.546,0.505,0.549,0.255,0.225,north-northwest,6.4,Yes
2015/03/19,06:20,0.531,0.333,0.548,0.505,0.549,0.254,0.226,north-northwest,6.6,Yes
2015/03/19,06:30,0.529,0.334,0.548,0.507,0.547,0.255,0.224,north-northwest,6.8,Yes
2015/03/19,06:40,0.530,0.331,0.547,0.504,0.548,0.253,0.224,north-northwest,7.3,Yes
2015/03/19,06:50,0.530,0.331,0.548,0.503,0.549,0.253,0.223,north-northwest,7.3,Yes
2015/03/19,07:00,0.529,0.331,0.547,0.506,0.548,0.251,0.223,north-northwest,7.8,Yes
2015/03/19,07:10,0.529,0.327,0.547,0.504,0.547,0.250,0.222,north-northwest,8.6,Yes
2015/03/19,07:20,0.533,0.332,0.546,0.504,0.549,0.251,0.222,north-northwest,8.1,Yes
2015/03/19,07:30,0.528,0.329,0.547,0.507,0.547,0.250,0.221,north-northwest,5.9,Yes
2015/03/19,07:40,0.531,0.329,0.545,0.506,0.545,0.251,0.222,north-northwest,6.4,Yes
2015/03/19,07:50,0.532,0.330,0.548,0.504,0.550,0.249,0.220,north,7.2,Yes
2015/03/19,08:00,0.528,0.328,0.547,0.505,0.547,0.250,0.221,north-northwest,7.5,No
2015/03/19,08:10,0.530,0.327,0.546,0.504,0.547,0.250,0.220,north,6.5,No
2015/03/19,08:20,0.530,0.328,0.547,0.503,0.546,0.249,0.219,north,6.2,No
2015/03/19,08:30,0.528,0.328,0.548,0.504,0.546,0.248,0.219,north,7.6,No
2015/03/19,08:40,0.529,0.327,0.545,0.503,0.545,0.247,0.219,north,6.7,No
2015/03/19,08:50,0.527,0.326,0.546,0.505,0.545,0.248,0.218,north,7.0,No
2015/03/19,09:00,0.525,0.328,0.547,0.506,0.545,0.247,0.218,north,6.1,No
2015/03/19,09:10,0.530,0.325,0.544,0.503,0.544,0.248,0.217,north,6.2,No
2015/03/19,09:20,0.529,0.326,0.548,0.504,0.546,0.248,0.219,north-northwest,6.2,No
2015/03/19,09:30,0.529,0.326,0.546,0.504,0.543,0.247,0.217,north,6.7,No
2015/03/19,09:40,0.531,0.325,0.547,0.503,0.545,0.246,0.217,north,6.3,No
2015/03/19,09:50,0.528,0.326,0.545,0.504,0.547,0.246,0.216,north,6.1,No
2015/03/19,10:00,0.529,0.325,0.546,0.504,0.545,0.247,0.218,north,5.5,No
2015/03/19,10:10,0.531,0.326,0.545,0.504,0.544,0.246,0.217,north-northeast,4.3,No
2015/03/19,10:20,0.527,0.326,0.546,0.507,0.548,0.246,0.217,north,4.4,No
2015/03/19,10:30,0.531,0.324,0.545,0.501,0.545,0.248,0.216,north,4.3,No
2015/03/19,10:40,0.528,0.325,0.547,0.506,0.548,0.246,0.217,north,3.6,No
2015/03/19,10:50,0.528,0.327,0.547,0.506,0.547,0.247,0.217,north,3.7,No
2015/03/19,11:00,0.531,0.325,0.544,0.504,0.548,0.247,0.218,north,3.1,No
2015/03/19,11:10,0.527,0.324,0.549,0.507,0.549,0.248,0.218,north,3.4,No
2015/03/19,11:20,0.531,0.325,0.545,0.505,0.545,0.247,0.218,north,3.9,No
2015/03/19,11:30,0.528,0.325,0.548,0.508,0.549,0.247,0.217,north-northeast,3.8,No
2015/03/19,11:40,0.531,0.326,0.546,0.506,0.546,0.247,0.217,north,3.0,No
2015/03/19,11:50,0.531,0.326,0.548,0.505,0.551,0.246,0.218,north-northeast,2.5,No
2015/03/19,12:00,0.527,0.326,0.550,0.507,0.546,0.247,0.217,north-northeast,3.3,No
2015/03/19,12:10,0.533,0.326,0.546,0.505,0.547,0.246,0.218,north-northeast,4.3,No
2015/03/19,12:20,0.529,0.326,0.551,0.509,0.549,0.247,0.217,north,5.3,No
2015/03/19,12:30,0.533,0.327,0.546,0.506,0.547,0.247,0.217,north,5.8,No
2015/03/19,12:40,0.532,0.326,0.549,0.508,0.550,0.247,0.219,north,6.1,No
2015/03/19,12:50,0.532,0.327,0.549,0.506,0.548,0.247,0.219,north-northeast,6.7,No
2015/03/19,13:00,0.533,0.328,0.548,0.507,0.550,0.248,0.218,north,5.6,No
2015/03/19,13:10,0.532,0.326,0.551,0.510,0.550,0.249,0.218,north,6.4,No
2015/03/19,13:20,0.533,0.328,0.548,0.506,0.547,0.248,0.218,north,6.4,Yes
2015/03/19,13:30,0.533,0.329,0.549,0.510,0.548,0.248,0.218,north,7.1,Yes
2015/03/19,13:40,0.532,0.328,0.552,0.508,0.550,0.250,0.219,north,6.5,Yes
2015/03/19,13:50,0.535,0.329,0.549,0.509,0.548,0.250,0.220,north,6.0,Yes
2015/03/19,14:00,0.535,0.331,0.554,0.515,0.552,0.254,0.222,north,5.8,Yes
2015/03/19,14:10,0.539,0.332,0.554,0.512,0.553,0.255,0.225,north,5.3,Yes
2015/03/19,14:20,0.538,0.335,0.554,0.515,0.553,0.257,0.225,north,5.2,Yes
2015/03/19,14:30,0.535,0.334,0.556,0.514,0.554,0.257,0.225,north,5.8,Yes
2015/03/19,14:40,0.539,0.336,0.552,0.510,0.553,0.255,0.225,north,5.6,Yes
2015/03/19,14:50,0.535,0.334,0.551,0.514,0.550,0.256,0.224,north,7.3,Yes
2015/03/19,15:00,0.532,0.332,0.552,0.508,0.551,0.256,0.225,north,7.5,Yes
2015/03/19,15:10,0.536,0.333,0.547,0.509,0.551,0.256,0.225,north,5.9,Yes
2015/03/19,15:20,0.533,0.334,0.550,0.508,0.551,0.256,0.226,north,6.8,Yes
2015/03/19,15:30,0.536,0.333,0.549,0.507,0.550,0.256,0.225,north,7.0,Yes
2015/03/19,15:40,0.535,0.335,0.547,0.507,0.550,0.256,0.224,north,6.6,Yes
2015/03/19,15:50,0.534,0.334,0.549,0.507,0.553,0.257,0.226,north,8.3,Yes
2015/03/19,16:00,0.535,0.334,0.548,0.507,0.549,0.256,0.226,north,9.0,Yes
2015/03/19,16:10,0.533,0.334,0.546,0.509,0.552,0.256,0.225,north,8.1,Yes
2015/03/19,16:20,0.534,0.335,0.549,0.507,0.552,0.256,0.224,north,8.1,Yes
2015/03/19,16:30,0.535,0.334,0.547,0.506,0.551,0.255,0.224,north,7.2,Yes
2015/03/19,16:40,0.531,0.332,0.547,0.508,0.550,0.254,0.223,north,6.2,No
2015/03/19,16:50,0.535,0.330,0.547,0.505,0.549,0.252,0.220,north,5.9,No
2015/03/19,17:00,0.530,0.329,0.546,0.507,0.547,0.251,0.221,north,6.0,No
2015/03/19,17:10,0.531,0.330,0.544,0.507,0.547,0.250,0.220,north,6.4,Yes
2015/03/19,17:20,0.532,0.328,0.548,0.505,0.547,0.250,0.219,north,6.0,Yes
2015/03/19,17:30,0.528,0.329,0.544,0.505,0.546,0.250,0.218,north,6.4,No
2015/03/19,17:40,0.530,0.329,0.544,0.504,0.547,0.248,0.220,north,6.1,No
2015/03/19,17:50,0.528,0.326,0.543,0.503,0.546,0.248,0.217,north,6.4,No
2015/03/19,18:00,0.529,0.327,0.543,0.505,0.544,0.248,0.216,north,6.1,No
2015/03/19,18:10,0.530,0.325,0.544,0.504,0.546,0.246,0.217,north,6.0,No
2015/03/19,18:20,0.527,0.324,0.544,0.503,0.545,0.247,0.215,north-northwest,6.5,No
2015/03/19,18:30,0.531,0.326,0.544,0.502,0.546,0.245,0.216,north,7.1,No
2015/03/19,18:40,0.528,0.325,0.547,0.500,0.544,0.247,0.216,north,6.5,No
2015/03/19,18:50,0.530,0.325,0.543,0.505,0.544,0.246,0.216,north,5.9,No
2015/03/19,19:00,0.530,0.326,0.548,0.503,0.547,0.246,0.217,north,6.4,No
2015/03/19,19:10,0.527,0.325,0.543,0.503,0.545,0.247,0.216,north,5.9,No
2015/03/19,19:20,0.530,0.326,0.543,0.504,0.543,0.246,0.216,north,4.7,No
2015/03/19,19:30,0.527,0.324,0.547,0.501,0.545,0.246,0.215,north,6.7,No
2015/03/19,19:40,0.531,0.325,0.543,0.505,0.545,0.247,0.216,north,6.9,No
2015/03/19,19:50,0.528,0.326,0.546,0.506,0.544,0.246,0.216,north,7.5,No
2015/03/19,20:00,0.526,0.325,0.546,0.502,0.545,0.247,0.216,north,7.5,No
2015/03/19,20:10,0.531,0.325,0.544,0.505,0.545,0.246,0.217,north,7.0,No
2015/03/19,20:20,0.528,0.324,0.547,0.504,0.544,0.246,0.215,north,6.5,No
2015/03/19,20:30,0.530,0.324,0.545,0.504,0.545,0.246,0.216,north,7.9,No
2015/03/19,20:40,0.532,0.327,0.544,0.505,0.545,0.247,0.216,north,7.8,No
2015/03/19,20:50,0.528,0.325,0.546,0.503,0.546,0.246,0.216,north,7.0,No
2015/03/19,21:00,0.532,0.326,0.544,0.507,0.544,0.246,0.217,north,6.9,No
2015/03/19,21:10,0.528,0.326,0.547,0.504,0.545,0.246,0.216,north-northwest,7.4,No
2015/03/19,21:20,0.533,0.325,0.545,0.503,0.546,0.247,0.217,north-northwest,6.4,No
2015/03/19,21:30,0.530,0.327,0.545,0.507,0.545,0.246,0.217,north,6.4,No
2015/03/19,21:40,0.530,0.325,0.549,0.505,0.548,0.245,0.216,north,6.8,No
2015/03/19,21:50,0.533,0.324,0.546,0.505,0.546,0.247,0.217,north,7.8,No
2015/03/19,22:00,0.527,0.328,0.548,0.504,0.544,0.246,0.215,north,6.4,No
2015/03/19,22:10,0.532,0.325,0.549,0.504,0.546,0.246,0.217,north-northeast,6.8,No
2015/03/19,22:20,0.532,0.327,0.544,0.507,0.547,0.247,0.216,north-northeast,7.7,No
2015/03/19,22:30,0.528,0.327,0.549,0.506,0.546,0.248,0.217,north-northeast,7.6,No
2015/03/19,22:40,0.533,0.326,0.548,0.505,0.547,0.247,0.217,north,6.4,No
2015/03/19,22:50,0.531,0.325,0.543,0.507,0.546,0.246,0.217,north,6.1,No
2015/03/19,23:00,0.529,0.327,0.549,0.504,0.545,0.246,0.218,north,6.4,No
2015/03/19,23:10,0.531,0.326,0.545,0.507,0.547,0.246,0.218,north,6.5,No
2015/03/19,23:20,0.530,0.326,0.546,0.506,0.544,0.248,0.218,north,7.0,No
2015/03/19,23:30,0.531,0.328,0.548,0.505,0.546,0.248,0.217,north,6.7,No
2015/03/19,23:40,0.531,0.325,0.546,0.506,0.548,0.245,0.217,north,5.3,No
2015/03/19,23:50,0.529,0.327,0.545,0.508,0.547,0.246,0.216,north,5.2,No
